Weather History for Pampa / Mesa Vista, TX

Change the Weather History Date:

Monday, December 19, 2011

  Actual Average (KBGD) Record (KBGD)
Temperature  
Mean Temperature 42 °F 38 °F  
Max Temperature 50 °F 49 °F 73 °F (2013)
Min Temperature 33 °F 26 °F 1 °F (1996)
Degree Days  
Heating Degree Days 24 27  
Month to date heating degree days 486  
Since 1 July heating degree days 1203  
Cooling Degree Days 0 0  
Month to date cooling degree days 0  
Year to date cooling degree days 1839  
Moisture  
Dew Point 44 °F    
Average Humidity 94    
Maximum Humidity 100    
Minimum Humidity 82    
Precipitation  
Precipitation 0.53 in 0.03 in 0.95 in (2011)
Month to date precipitation 0.36  
Year to date precipitation 21.31  
Snow  
Snow 0.00 in - - ()
Month to date snowfall  
Since 1 July snowfall  
Snow Depth -    
Sea Level Pressure  
Sea Level Pressure 29.79 in    
Wind  
Wind Speed 10 mph (ESE)    
Max Wind Speed 29 mph    
Max Gust Speed 39 mph    
Visibility 8 miles    
Events Fog , Rain    
T = Trace of Precipitation, MM = Missing Value Source: NWS Daily Summary

Daily Weather History Graph

Daily Weather History Graph

Search for Another Location

Airport:

Trip Planner

Search our weather history database for the weather conditions in past years. The results will help you decide how hot, cold, wet, or windy it might be!

Date:

Astronomy

Dec. 19, 2011 Rise Set
Actual Time 7:49 AM CST 5:32 PM CST
Civil Twilight 7:20 AM CST 6:01 PM CST
Nautical Twilight 6:48 AM CST 6:33 PM CST
Astronomical Twilight 6:17 AM CST 7:04 PM CST
Moon 2:08 AM CST (12/19) 1:26 PM CST (12/19)
Length of Visible Light 10h 40m
Length of Day
9h 43m
Waning Crescent, 31% of the Moon is Illuminated
Dec 19
Waning Crescent
Dec 24
New
Jan 1
First Quarter
Jan 9
Full
Jan 16
Last Quarter

Hourly Weather History & Observations

Time (CST) Temp. Windchill Dew Point Humidity Pressure Visibility Wind Dir Wind Speed Gust Speed Precip Events Conditions
12:15 AM 46.4 °F 40.4 °F 42.8 °F 87% 29.89 in 10.0 mi SSW 13.8 mph 19.6 mph N/A   Clear
12:35 AM 46.4 °F 40.1 °F 42.8 °F 87% 29.88 in 10.0 mi SW 15.0 mph - N/A   Clear
12:55 AM 46.4 °F 41.1 °F 42.8 °F 87% 29.87 in 10.0 mi SW 11.5 mph - N/A   Clear
1:15 AM 46.4 °F 41.1 °F 44.6 °F 93% 29.88 in 10.0 mi SSW 11.5 mph - N/A   Mostly Cloudy
1:35 AM 46.4 °F 42.4 °F 44.6 °F 93% 29.87 in 10.0 mi SSW 8.1 mph - N/A   Overcast
1:55 AM 46.4 °F 41.9 °F 44.6 °F 93% 29.86 in 10.0 mi SSW 9.2 mph - N/A   Overcast
2:15 AM 48.2 °F - 44.6 °F 87% 29.86 in 10.0 mi SSW 10.4 mph - N/A   Overcast
2:35 AM 50.0 °F - 44.6 °F 82% 29.86 in 10.0 mi SSW 10.4 mph - N/A   Overcast
2:55 AM 50.0 °F - 44.6 °F 82% 29.86 in 10.0 mi SSW 13.8 mph 20.7 mph N/A   Overcast
3:15 AM 50.0 °F - 44.6 °F 82% 29.85 in 10.0 mi SSW 15.0 mph 19.6 mph N/A   Overcast
3:35 AM 50.0 °F - 46.4 °F 87% 29.84 in 10.0 mi SSW 12.7 mph - N/A   Overcast
3:55 AM 50.0 °F - 46.4 °F 87% 29.84 in 10.0 mi SSW 8.1 mph - N/A   Overcast
4:15 AM 50.0 °F - 46.4 °F 87% 29.84 in 10.0 mi SW 8.1 mph - N/A   Overcast
4:35 AM 50.0 °F - 46.4 °F 87% 29.82 in 10.0 mi South 5.8 mph - N/A   Overcast
4:55 AM 50.0 °F - 46.4 °F 87% 29.81 in 10.0 mi Calm Calm - N/A   Overcast
5:15 AM 50.0 °F - 46.4 °F 87% 29.82 in 10.0 mi Calm Calm - N/A   Overcast
5:35 AM 50.0 °F - 46.4 °F 87% 29.82 in 10.0 mi Calm Calm - N/A   Overcast
5:55 AM 50.0 °F - 46.4 °F 87% 29.81 in 5.0 mi Calm Calm - N/A   Overcast
6:15 AM 48.2 °F - 46.4 °F 93% 29.82 in 5.0 mi Calm Calm - N/A   Overcast
6:35 AM 48.2 °F - 46.4 °F 93% 29.82 in 3.0 mi ENE 3.5 mph - N/A   Overcast
7:15 AM 48.2 °F - 46.4 °F 93% 29.81 in 0.8 mi Calm Calm - N/A   Light Drizzle
7:35 AM 48.2 °F - 46.4 °F 93% 29.81 in 0.5 mi NE 4.6 mph - N/A Fog Fog
7:55 AM 48.2 °F - 46.4 °F 93% 29.80 in 0.2 mi ENE 3.5 mph - N/A Rain Rain
8:15 AM 48.2 °F - 48.2 °F 100% 29.80 in 0.5 mi East 4.6 mph - 0.01 in Rain Light Rain
8:35 AM 48.2 °F - 48.2 °F 100% 29.79 in 1.8 mi ENE 5.8 mph - 0.10 in Rain Rain
8:55 AM 50.0 °F - 48.2 °F 94% 29.81 in 3.0 mi ESE 9.2 mph - 0.11 in   Overcast
9:15 AM 48.2 °F - 48.2 °F 100% 29.80 in 10.0 mi East 6.9 mph - N/A Rain Light Rain
9:35 AM 48.2 °F - 46.4 °F 93% 29.80 in 7.0 mi East 6.9 mph - 0.02 in Rain Light Rain
9:55 AM 48.2 °F - 46.4 °F 93% 29.81 in 5.0 mi ESE 11.5 mph - 0.03 in   Light Drizzle
10:15 AM 48.2 °F - 46.4 °F 93% 29.80 in 7.0 mi ESE 10.4 mph - N/A Rain Light Rain
10:35 AM 46.4 °F 41.9 °F 46.4 °F 100% 29.80 in 10.0 mi East 9.2 mph - 0.02 in Rain Rain
10:55 AM 46.4 °F 43.5 °F 46.4 °F 100% 29.78 in 7.0 mi ENE 5.8 mph - 0.05 in Rain Light Rain
11:15 AM 46.4 °F 44.3 °F 46.4 °F 100% 29.78 in 5.0 mi East 4.6 mph - 0.04 in Rain Rain
11:35 AM 48.2 °F - 46.4 °F 93% 29.78 in 10.0 mi East 8.1 mph - 0.06 in Rain Light Rain
11:55 AM 48.2 °F - 46.4 °F 93% 29.77 in 10.0 mi East 8.1 mph - 0.07 in Rain Rain
12:15 PM 48.2 °F - 46.4 °F 93% 29.75 in 10.0 mi East 6.9 mph - N/A Rain Light Rain
12:35 PM 46.4 °F 42.4 °F 46.4 °F 100% 29.74 in 7.0 mi East 8.1 mph - 0.02 in Rain Rain
12:55 PM 48.2 °F - 46.4 °F 93% 29.72 in 10.0 mi East 5.8 mph - 0.04 in Rain Light Rain
1:15 PM 46.4 °F 41.9 °F 46.4 °F 100% 29.71 in 10.0 mi East 9.2 mph - N/A   Overcast
1:35 PM 46.4 °F 42.4 °F 46.4 °F 100% 29.71 in 10.0 mi East 8.1 mph - N/A   Overcast
1:55 PM 46.4 °F 41.9 °F 46.4 °F 100% 29.70 in 10.0 mi ESE 9.2 mph - N/A   Light Drizzle
2:15 PM 46.4 °F 42.4 °F 46.4 °F 100% 29.70 in 10.0 mi ESE 8.1 mph - N/A   Drizzle
2:35 PM 46.4 °F 42.9 °F 46.4 °F 100% 29.69 in 5.0 mi East 6.9 mph - 0.01 in   Drizzle
2:55 PM 46.4 °F 42.4 °F 46.4 °F 100% 29.69 in 5.0 mi NE 8.1 mph - 0.02 in Rain Light Rain
3:15 PM 46.4 °F 41.5 °F 44.6 °F 93% 29.69 in 3.0 mi NE 10.4 mph - 0.05 in Rain Rain
3:55 PM 37.4 °F 26.6 °F 37.4 °F 100% 29.70 in 4.0 mi NNE 21.9 mph 31.1 mph 0.17 in Rain Light Rain
4:15 PM 37.4 °F 26.6 °F 37.4 °F 100% 29.70 in 5.0 mi NNE 21.9 mph 33.4 mph 0.01 in Rain Rain
4:35 PM 35.6 °F 22.7 °F 35.6 °F 100% 29.69 in 10.0 mi NNE 28.8 mph 34.5 mph 0.01 in Rain Rain
4:55 PM 35.6 °F 24.5 °F 35.6 °F 100% 29.72 in 10.0 mi NE 20.7 mph 32.2 mph 0.01 in Rain Light Rain
5:15 PM 35.6 °F 23.7 °F 35.6 °F 100% 29.69 in 4.0 mi NE 24.2 mph 39.1 mph 0.02 in Rain Light Rain
5:35 PM 35.6 °F 23.7 °F 35.6 °F 100% 29.72 in 10.0 mi NE 24.2 mph 33.4 mph 0.02 in Rain Light Rain
5:55 PM 33.8 °F 20.3 °F 33.8 °F 100% 29.70 in 10.0 mi NE 28.8 mph 36.8 mph 0.03 in Rain Light Rain
6:15 PM 33.8 °F 21.6 °F 33.8 °F 100% 29.73 in 7.0 mi NE 23.0 mph 34.5 mph N/A Rain Rain
6:35 PM 33.8 °F 21.6 °F 33.8 °F 100% 29.73 in 5.0 mi NE 23.0 mph 31.1 mph N/A Rain Light Rain
6:55 PM 32.0 °F 20.5 °F 32.0 °F 100% 29.76 in 5.0 mi NNE 18.4 mph 28.8 mph 0.03 in Rain Rain
7:15 PM 32.0 °F 27.5 °F 32.0 °F 100% 29.82 in 1.8 mi West 4.6 mph - 0.05 in Snow Light Snow
7:35 PM 32.0 °F 24.8 °F 32.0 °F 100% 29.83 in 2.5 mi NNE 8.1 mph - 0.10 in Snow Light Snow
7:55 PM 32.0 °F 26.4 °F 32.0 °F 100% 29.82 in 1.2 mi NNW 5.8 mph - 0.12 in Snow Snow
8:15 PM 32.0 °F 23.6 °F 32.0 °F 100% 29.82 in 1.8 mi North 10.4 mph - N/A Snow Light Snow
8:35 PM 32.0 °F 22.1 °F 32.0 °F 100% 29.81 in 2.0 mi NNE 13.8 mph 24.2 mph N/A Snow Light Snow
8:55 PM 32.0 °F 19.8 °F 32.0 °F 100% 29.80 in 1.8 mi NNE 20.7 mph 25.3 mph N/A Snow Light Snow
9:15 PM 32.0 °F 20.8 °F 32.0 °F 100% 29.82 in 5.0 mi NNE 17.3 mph 23.0 mph N/A Snow Light Snow
9:35 PM 32.0 °F 21.6 °F 32.0 °F 100% 29.81 in 2.5 mi North 15.0 mph 23.0 mph N/A Snow Light Snow
9:55 PM 32.0 °F 22.1 °F 32.0 °F 100% 29.82 in 3.0 mi NNE 13.8 mph 19.6 mph N/A Snow Light Snow
10:15 PM 32.0 °F 22.1 °F 32.0 °F 100% 29.82 in 2.5 mi NNE 13.8 mph 20.7 mph N/A Snow Light Snow
10:35 PM 32.0 °F 23.6 °F 32.0 °F 100% 29.82 in 3.0 mi North 10.4 mph 20.7 mph N/A Snow Light Snow
11:15 PM 32.0 °F 21.2 °F 32.0 °F 100% 29.82 in 10.0 mi North 16.1 mph 20.7 mph N/A Snow Light Snow
11:35 PM 32.0 °F 20.5 °F 32.0 °F 100% 29.82 in 5.0 mi North 18.4 mph 23.0 mph N/A Rain Light Rain
11:55 PM 32.0 °F 20.5 °F 32.0 °F 100% 29.83 in 3.0 mi North 18.4 mph 25.3 mph N/A Snow Light Snow